Weather History for KSMQ - March, 2012

Change the Weather History Date:

Friday, March 16, 2012

  Actual Average Record
Temperature  
Mean Temperature 46 °F -  
Max Temperature 51 °F 49 °F - (-1)
Min Temperature 39 °F 27 °F - (-1)
Degree Days  
Heating Degree Days 20    
Moisture  
Dew Point 42 °F    
Average Humidity 91    
Maximum Humidity 96    
Minimum Humidity 82    
Precipitation  
Precipitation 0.04 in - - ()
Sea Level Pressure  
Sea Level Pressure 30.18 in    
Wind  
Wind Speed 1 mph (East)    
Max Wind Speed 8 mph    
Max Gust Speed -    
Visibility 4 miles    
Events Fog , Rain    
Averages and records for this station are not official NWS values.
T = Trace of Precipitation, MM = Missing Value Source: NWS Daily Summary

Daily Weather History Graph

Daily Weather History Graph

Search for Another Location

Airport or City:

Trip Planner

Search our weather history database for the weather conditions in past years. The results will help you decide how hot, cold, wet, or windy it might be!

Date:

Astronomy

Mar. 16, 2012 Rise Set
Actual Time 7:07 AM EDT 7:07 PM EDT
Civil Twilight 6:40 AM EDT 7:34 PM EDT
Nautical Twilight 6:08 AM EDT 8:06 PM EDT
Astronomical Twilight 5:36 AM EDT 8:38 PM EDT
Moon 3:25 AM EDT (3/16) 1:23 PM EDT (3/16)
Length of Visible Light 12h 53m
Length of Day
11h 59m
Waning Crescent, 33% of the Moon is Illuminated
Mar 16
Waning Crescent
Mar 22
New
Mar 30
First Quarter
Apr 6
Full
Apr 13
Last Quarter

Hourly Weather History & Observations

Time (EDT) Temp. Windchill Dew Point Humidity Pressure Visibility Wind Dir Wind Speed Gust Speed Precip Events Conditions
12:53 AM 44.1 °F - 42.1 °F 93% 30.27 in 9.0 mi Calm Calm - N/A   Overcast
1:53 AM 44.1 °F 41.5 °F 42.1 °F 93% 30.25 in 5.0 mi East 4.6 mph - N/A   Overcast
2:53 AM 44.1 °F 41.5 °F 42.1 °F 93% 30.22 in 4.0 mi East 4.6 mph - 0.00 in Rain Light Rain
3:53 AM 44.1 °F 42.5 °F 42.1 °F 93% 30.22 in 10.0 mi SE 3.5 mph - 0.03 in   Overcast
4:53 AM 44.1 °F - 42.1 °F 93% 30.22 in 4.0 mi Calm Calm - N/A   Overcast
5:53 AM 44.1 °F - 42.1 °F 93% 30.22 in 8.0 mi Calm Calm - N/A   Overcast
6:48 AM 44.6 °F - 42.8 °F 93% 30.22 in 3.0 mi Calm Calm - N/A   Overcast
6:53 AM 44.1 °F - 42.1 °F 93% 30.22 in 3.0 mi Calm Calm - N/A   Overcast
7:42 AM 44.6 °F - 42.8 °F 93% 30.22 in 1.8 mi Calm Calm - N/A   Overcast
7:53 AM 44.1 °F - 43.0 °F 96% 30.22 in 1.2 mi Calm Calm - N/A   Overcast
8:23 AM 44.6 °F - 42.8 °F 93% 30.22 in 2.0 mi Calm Calm - N/A   Overcast
8:44 AM 44.6 °F - 42.8 °F 93% 30.21 in 1.8 mi Calm Calm - N/A   Overcast
8:53 AM 44.1 °F - 43.0 °F 96% 30.22 in 2.0 mi Calm Calm - N/A   Overcast
9:02 AM 44.6 °F - 42.8 °F 93% 30.21 in 2.5 mi Calm Calm - N/A   Overcast
9:13 AM 44.6 °F 42.2 °F 42.8 °F 93% 30.21 in 3.0 mi East 4.6 mph - N/A   Overcast
9:53 AM 45.0 °F 42.6 °F 43.0 °F 93% 30.20 in 2.5 mi Variable 4.6 mph - 0.00 in Rain Light Rain
10:02 AM 44.6 °F 40.2 °F 42.8 °F 93% 30.20 in 4.0 mi NE 8.1 mph - 0.00 in   Overcast
10:53 AM 46.0 °F 43.1 °F 43.0 °F 89% 30.20 in 6.0 mi NE 5.8 mph - 0.00 in Rain Light Rain
11:53 AM 46.0 °F - 43.0 °F 89% 30.21 in 5.0 mi Calm Calm - 0.00 in   Overcast
12:53 PM 46.9 °F - 44.1 °F 90% 30.18 in 6.0 mi Calm Calm - N/A   Overcast
1:53 PM 48.0 °F - 45.0 °F 89% 30.16 in 5.0 mi Calm Calm - N/A   Overcast
2:53 PM 48.9 °F - 45.0 °F 86% 30.13 in 5.0 mi Calm Calm - N/A   Overcast
3:53 PM 48.9 °F - 45.0 °F 86% 30.12 in 9.0 mi Calm Calm - N/A   Overcast
4:39 PM 50.0 °F - 44.6 °F 82% 30.11 in 9.0 mi Calm Calm - N/A   Overcast
4:53 PM 50.0 °F - 46.0 °F 86% 30.12 in 9.0 mi Calm Calm - N/A   Overcast
5:53 PM 50.0 °F - 46.0 °F 86% 30.12 in 6.0 mi Calm Calm - N/A   Overcast
6:53 PM 50.0 °F - 46.0 °F 86% 30.13 in 7.0 mi Calm Calm - N/A   Mostly Cloudy
7:00 PM 48.2 °F - 46.4 °F 93% 30.12 in 6.0 mi Calm Calm - N/A   Scattered Clouds
7:53 PM 46.9 °F - 44.1 °F 90% 30.15 in 5.0 mi Calm Calm - N/A   Clear
8:31 PM 44.6 °F - 42.8 °F 93% 30.16 in 1.2 mi Calm Calm - N/A   Partly Cloudy
8:33 PM 44.6 °F - 42.8 °F 93% 30.15 in 0.8 mi Calm Calm - N/A   Mist
8:46 PM 44.6 °F - 42.8 °F 93% 30.15 in 1.2 mi Calm Calm - N/A   Partly Cloudy
8:53 PM 45.0 °F - 43.0 °F 93% 30.16 in 3.0 mi Calm Calm - N/A   Mist
9:03 PM 44.6 °F - 42.8 °F 93% 30.16 in 2.5 mi Calm Calm - N/A   Mist
9:11 PM 44.6 °F - 42.8 °F 93% 30.16 in 4.0 mi Calm Calm - N/A   Mist
9:45 PM 42.8 °F - 41.0 °F 93% 30.15 in 1.5 mi Calm Calm - 0.01 in   Partly Cloudy
9:49 PM 42.8 °F - 39.2 °F 87% 30.15 in 0.8 mi Calm Calm - 0.01 in   Mist
9:53 PM 43.0 °F - 39.9 °F 89% 30.16 in 0.8 mi Calm Calm - 0.01 in   Mist
10:12 PM 42.8 °F - 39.2 °F 87% 30.16 in 0.2 mi Calm Calm - N/A Fog Fog
10:40 PM 42.8 °F - 39.2 °F 87% 30.16 in 0.8 mi Calm Calm - N/A   Mist
10:44 PM 41.0 °F - 39.2 °F 93% 30.17 in 2.0 mi Calm Calm - N/A   Overcast
10:50 PM 42.8 °F - 39.2 °F 87% 30.17 in 0.8 mi Calm Calm - N/A   Mist
10:53 PM 41.0 °F - 39.9 °F 96% 30.17 in 0.5 mi Calm Calm - N/A Fog Fog
11:01 PM 41.0 °F - 39.2 °F 93% 30.17 in 0.2 mi Calm Calm - N/A Fog Fog
11:53 PM 39.9 °F - 37.9 °F 93% 30.18 in 0.2 mi Calm Calm - N/A Fog Fog